STARLINK-31934 (59877 NORAD) Tracking and Keplerian Element Data

This shows tracking and keplerian element data for the satellite.

Feedback or suggestion? Click here.




ElementValue
Catalog59877
NameSTARLINK-31934
Epoch Orbit295
Epoch Day160.16667824
Epoch Year2024
RAAN327.9749
Inclination43.001
Eccentricity0.0001475
Argument of Perigee281.6257
Mean Anonmoly209.0879
Mean Motion15.73524209
Decay Rate-0.01742694
L11 59877U 24098V 24160.16667824 -.01742694 00000+0 -13766-1 0 9990
L22 59877 43.0010 327.9749 0001475 281.6257 209.0879 15.73524209 2954



Live tracking and technical data element details for STARLINK-31934 (NORAD 59877). STARLINK-31934 can be tracked NOW for your location showing map with azimuth and elevation plus other details from your city location.







IsCatalogInMostPopularTable: catalog: 59877, numindb: 7
Update: records affected: 1



GetName: 59877 STARLINK-31934

Hit Count: updated at: Tue, 16 Jul 2024 02:14:54 GMT